CEB5263 VHHH-RPMD

Flight info

Callsign CEB5263
Flight time N/A
Altitude 39000
Route DALOL V641 NOMAN A461 AVMUP W16 MIA W11 MCT W14 BN W9 RIMAR RIMAR2R
Aircraft A339/H-SADE1E2E3GHIJ3J5M1P2RWXY/LB2D1

Departure

Time 2026-04-30 07:48
Airport Hong Kong International Airport (VHHH)

Arrival

Time N/A
Airport Francisco Bangoy International Airport (RPMD)
Time Latitude Longitude Altitude Speed Heading
2026-04-30 07:30 22.31468 113.92554 43 ft 0 kts 206°
2026-04-30 07:38 22.31471 113.92555 43 ft 2 kts 206°
2026-04-30 07:38 22.31484 113.92563 43 ft 2 kts 206°
2026-04-30 07:39 22.31498 113.92570 43 ft 2 kts 206°
2026-04-30 07:39 22.31511 113.92577 43 ft 2 kts 206°
2026-04-30 07:39 22.31525 113.92584 43 ft 2 kts 206°
2026-04-30 07:39 22.31538 113.92592 43 ft 2 kts 226°
2026-04-30 07:40 22.31546 113.92606 43 ft 2 kts 250°
2026-04-30 07:40 22.31549 113.92622 43 ft 2 kts 273°
2026-04-30 07:40 22.31547 113.92636 43 ft 1 kts 294°
2026-04-30 07:40 22.31544 113.92641 43 ft 0 kts 296°
2026-04-30 07:42 22.31545 113.92641 43 ft 1 kts 296°
2026-04-30 07:43 22.31565 113.92593 43 ft 10 kts 294°
2026-04-30 07:43 22.31598 113.92516 43 ft 11 kts 296°
2026-04-30 07:43 22.31657 113.92471 43 ft 9 kts 11°
2026-04-30 07:43 22.31696 113.92535 43 ft 11 kts 71°
2026-04-30 07:44 22.31724 113.92619 43 ft 13 kts 69°
2026-04-30 07:44 22.31761 113.92726 43 ft 15 kts 71°
2026-04-30 07:44 22.31798 113.92841 43 ft 16 kts 72°
2026-04-30 07:44 22.31834 113.92959 43 ft 16 kts 71°
2026-04-30 07:45 22.31873 113.93076 43 ft 14 kts 60°
2026-04-30 07:45 22.31939 113.93095 43 ft 9 kts 336°
2026-04-30 07:45 22.31976 113.93077 43 ft 0 kts 337°
2026-04-30 07:45 22.31990 113.93070 43 ft 7 kts 338°
2026-04-30 07:46 22.32075 113.93037 43 ft 9 kts 336°
2026-04-30 07:46 22.32115 113.93008 43 ft 6 kts 314°
2026-04-30 07:46 22.32115 113.92969 43 ft 7 kts 249°
2026-04-30 07:46 22.32107 113.92947 43 ft 1 kts 248°
2026-04-30 07:47 22.32102 113.92931 43 ft 4 kts 250°
2026-04-30 07:47 22.32035 113.92727 43 ft 61 kts 251°
2026-04-30 07:47 22.31825 113.92075 43 ft 121 kts 251°
2026-04-30 07:47 22.31492 113.91038 55 ft 168 kts 254°
2026-04-30 07:48 22.31115 113.89826 557 ft 169 kts 253°
2026-04-30 07:48 22.30738 113.88660 1203 ft 162 kts 253°
2026-04-30 07:48 22.30367 113.87527 1699 ft 160 kts 254°
2026-04-30 07:48 22.30005 113.86400 2126 ft 162 kts 252°
2026-04-30 07:49 22.29630 113.85249 2569 ft 162 kts 253°
2026-04-30 07:49 22.29254 113.84105 3008 ft 163 kts 253°
2026-04-30 07:49 22.28872 113.82928 3373 ft 170 kts 253°
2026-04-30 07:49 22.28474 113.81691 3684 ft 183 kts 253°
2026-04-30 07:50 22.28035 113.80322 3987 ft 198 kts 253°
2026-04-30 07:50 22.27565 113.78865 4287 ft 215 kts 252°
2026-04-30 07:50 22.27054 113.77281 4618 ft 233 kts 252°
2026-04-30 07:50 22.26505 113.75580 5072 ft 247 kts 252°
2026-04-30 07:51 22.25770 113.73898 5779 ft 251 kts 234°
2026-04-30 07:51 22.24488 113.72633 6557 ft 253 kts 216°
2026-04-30 07:51 22.22978 113.71638 7299 ft 255 kts 210°
2026-04-30 07:51 22.21255 113.71166 7943 ft 265 kts 181°
2026-04-30 07:52 22.19439 113.71652 8542 ft 273 kts 161°
2026-04-30 07:52 22.17688 113.72498 8867 ft 280 kts 154°
2026-04-30 07:52 22.16215 113.73976 9132 ft 303 kts 123°
2026-04-30 07:52 22.15350 113.76073 9628 ft 313 kts 110°
2026-04-30 07:53 22.14653 113.78327 10235 ft 317 kts 109°
2026-04-30 07:53 22.13936 113.80611 10604 ft 330 kts 110°
2026-04-30 07:53 22.13144 113.82964 10875 ft 346 kts 111°
2026-04-30 07:53 22.12260 113.85455 11145 ft 361 kts 112°
2026-04-30 07:54 22.11326 113.88001 11575 ft 371 kts 112°
2026-04-30 07:54 22.10365 113.90578 12150 ft 375 kts 113°
2026-04-30 07:54 22.09385 113.93182 12754 ft 379 kts 113°
2026-04-30 07:54 22.08378 113.95845 13345 ft 383 kts 113°
2026-04-30 07:55 22.07367 113.98513 13886 ft 387 kts 113°
2026-04-30 07:55 22.06348 114.01199 14484 ft 390 kts 113°
2026-04-30 07:55 22.05322 114.03898 15043 ft 394 kts 113°
2026-04-30 07:55 22.04287 114.06616 15618 ft 396 kts 114°
2026-04-30 07:56 22.03233 114.09383 16199 ft 399 kts 114°
2026-04-30 07:56 22.02186 114.12128 16768 ft 402 kts 114°
2026-04-30 07:56 22.01116 114.14935 17329 ft 405 kts 114°
2026-04-30 07:56 22.00051 114.17728 17858 ft 408 kts 114°
2026-04-30 07:57 21.98958 114.20583 18397 ft 411 kts 114°
2026-04-30 07:57 21.97868 114.23434 18920 ft 414 kts 114°
2026-04-30 07:57 21.96778 114.26286 19432 ft 418 kts 114°
2026-04-30 07:57 21.95675 114.29167 19939 ft 421 kts 114°
2026-04-30 07:58 21.94544 114.32121 20441 ft 424 kts 114°
2026-04-30 07:58 21.93423 114.35046 20926 ft 427 kts 114°
2026-04-30 07:58 21.92296 114.37987 21400 ft 430 kts 114°
2026-04-30 07:58 21.91146 114.40987 21862 ft 434 kts 114°
2026-04-30 07:59 21.89990 114.43996 22315 ft 437 kts 114°
2026-04-30 07:59 21.88829 114.47021 22781 ft 439 kts 114°
2026-04-30 07:59 21.87663 114.50057 23226 ft 442 kts 114°
2026-04-30 08:00 21.85294 114.56221 24088 ft 449 kts 114°
2026-04-30 08:00 21.84098 114.59331 24537 ft 451 kts 114°
2026-04-30 08:00 21.82909 114.62415 24944 ft 454 kts 114°
2026-04-30 08:00 21.81688 114.65585 25352 ft 457 kts 114°
2026-04-30 08:01 21.80473 114.68738 25746 ft 460 kts 114°
2026-04-30 08:01 21.79246 114.71919 26147 ft 462 kts 114°
2026-04-30 08:01 21.78016 114.75105 26540 ft 465 kts 114°
2026-04-30 08:01 21.76767 114.78336 26927 ft 467 kts 114°
2026-04-30 08:02 21.73994 114.84623 27643 ft 470 kts 122°
2026-04-30 08:02 21.72243 114.87579 28009 ft 471 kts 127°
2026-04-30 08:03 21.68296 114.93206 28735 ft 474 kts 130°
2026-04-30 08:03 21.64257 114.98857 29446 ft 479 kts 130°
2026-04-30 08:03 21.62236 115.01703 29792 ft 481 kts 130°
2026-04-30 08:04 21.60211 115.04555 30143 ft 483 kts 130°
2026-04-30 08:04 21.58180 115.07416 30487 ft 485 kts 130°
2026-04-30 08:04 21.56117 115.10323 30823 ft 487 kts 130°
2026-04-30 08:04 21.54059 115.13201 31132 ft 489 kts 131°
2026-04-30 08:05 21.51862 115.16014 31460 ft 490 kts 135°
2026-04-30 08:05 21.49582 115.18723 31790 ft 491 kts 135°
2026-04-30 08:05 21.47274 115.21442 32151 ft 492 kts 135°
2026-04-30 08:05 21.44972 115.24150 32603 ft 490 kts 135°
2026-04-30 08:06 21.42644 115.26889 33096 ft 488 kts 135°
2026-04-30 08:06 21.40366 115.29571 33588 ft 487 kts 135°
2026-04-30 08:06 21.38091 115.32249 34060 ft 485 kts 135°
2026-04-30 08:06 21.35824 115.34916 34489 ft 484 kts 135°
2026-04-30 08:07 21.33553 115.37589 34902 ft 483 kts 135°
2026-04-30 08:07 21.31301 115.40238 35319 ft 482 kts 135°
2026-04-30 08:07 21.29033 115.42905 35716 ft 481 kts 135°
2026-04-30 08:07 21.26801 115.45530 36069 ft 481 kts 135°
2026-04-30 08:08 21.24530 115.48196 36417 ft 481 kts 135°
2026-04-30 08:08 21.22293 115.50823 36743 ft 480 kts 135°
2026-04-30 08:08 21.20027 115.53483 37069 ft 480 kts 135°
2026-04-30 08:08 21.17784 115.56116 37353 ft 480 kts 135°
2026-04-30 08:09 21.15549 115.58736 37553 ft 482 kts 135°
2026-04-30 08:09 21.13263 115.61415 37729 ft 484 kts 135°
2026-04-30 08:09 21.11000 115.64066 37916 ft 486 kts 135°
2026-04-30 08:09 21.08692 115.66769 38125 ft 487 kts 135°
2026-04-30 08:10 21.06420 115.69428 38329 ft 488 kts 135°
2026-04-30 08:10 21.04129 115.72110 38525 ft 489 kts 135°
2026-04-30 08:10 21.01808 115.74825 38705 ft 490 kts 135°
2026-04-30 08:10 20.99533 115.77486 38887 ft 491 kts 135°
2026-04-30 08:11 20.97203 115.80209 38949 ft 492 kts 135°
2026-04-30 08:11 20.92790 115.85365 38948 ft 492 kts 135°
2026-04-30 08:12 20.88149 115.90778 38947 ft 492 kts 135°
2026-04-30 08:12 20.83312 115.95947 38939 ft 490 kts 141°
2026-04-30 08:13 20.78047 116.00589 38936 ft 488 kts 144°
2026-04-30 08:13 20.72748 116.05115 38932 ft 488 kts 144°
2026-04-30 08:14 20.67472 116.09629 38937 ft 488 kts 144°
2026-04-30 08:14 20.62137 116.14198 38935 ft 488 kts 144°
2026-04-30 08:15 20.56869 116.18709 38935 ft 487 kts 144°
2026-04-30 08:15 20.51525 116.23280 38940 ft 488 kts 144°
2026-04-30 08:16 20.46228 116.27808 38939 ft 487 kts 144°
2026-04-30 08:16 20.40921 116.32344 38938 ft 487 kts 144°
2026-04-30 08:17 20.35616 116.36869 38935 ft 486 kts 144°
2026-04-30 08:17 20.30351 116.41359 38934 ft 486 kts 144°
2026-04-30 08:18 20.25065 116.45862 38930 ft 485 kts 144°
2026-04-30 08:18 20.19771 116.50366 38928 ft 486 kts 144°
2026-04-30 08:19 20.14480 116.54868 38924 ft 485 kts 144°
2026-04-30 08:19 20.09210 116.59347 38926 ft 485 kts 144°
2026-04-30 08:20 20.03888 116.63867 38922 ft 485 kts 144°
2026-04-30 08:20 19.98833 116.68601 38924 ft 488 kts 138°
2026-04-30 08:21 19.94159 116.73885 38920 ft 488 kts 135°
2026-04-30 08:21 19.89609 116.79186 38920 ft 488 kts 135°
2026-04-30 08:22 19.85017 116.84520 38923 ft 487 kts 135°
2026-04-30 08:22 19.80425 116.89842 38918 ft 487 kts 135°
2026-04-30 08:23 19.75815 116.95176 38918 ft 487 kts 135°
2026-04-30 08:23 19.71235 117.00470 38917 ft 487 kts 135°
2026-04-30 08:24 19.66748 117.05653 38916 ft 486 kts 135°
2026-04-30 08:24 19.62160 117.10951 38916 ft 486 kts 136°
2026-04-30 08:25 19.57597 117.16213 38920 ft 485 kts 136°
2026-04-30 08:25 19.52983 117.21526 38922 ft 485 kts 136°
2026-04-30 08:26 19.48402 117.26796 38923 ft 485 kts 136°
2026-04-30 08:26 19.43811 117.32073 38919 ft 485 kts 136°
2026-04-30 08:27 19.39226 117.37342 38915 ft 485 kts 136°
2026-04-30 08:27 19.34659 117.42586 38914 ft 484 kts 136°
2026-04-30 08:28 19.30110 117.47803 38915 ft 483 kts 136°
2026-04-30 08:28 19.25555 117.53023 38921 ft 483 kts 136°
2026-04-30 08:29 19.20985 117.58251 38921 ft 482 kts 137°
2026-04-30 08:29 19.16454 117.63435 38924 ft 481 kts 137°
2026-04-30 08:30 19.11904 117.68636 38920 ft 480 kts 137°
2026-04-30 08:30 19.07360 117.73827 38924 ft 481 kts 137°
2026-04-30 08:31 19.02801 117.79031 38923 ft 480 kts 137°
2026-04-30 08:31 18.98251 117.84206 38921 ft 479 kts 137°
2026-04-30 08:32 18.93712 117.89370 38924 ft 479 kts 137°
2026-04-30 08:32 18.89200 117.94500 38929 ft 479 kts 137°
2026-04-30 08:33 18.84644 117.99676 38919 ft 478 kts 137°
2026-04-30 08:33 18.80146 118.04782 38920 ft 478 kts 137°
2026-04-30 08:34 18.75624 118.09915 38915 ft 477 kts 137°
2026-04-30 08:34 18.71065 118.15082 38915 ft 478 kts 137°
2026-04-30 08:35 18.66606 118.20132 38914 ft 477 kts 137°
2026-04-30 08:35 18.62056 118.25284 38915 ft 476 kts 137°
2026-04-30 08:36 18.57541 118.30389 38911 ft 477 kts 137°
2026-04-30 08:36 18.52994 118.35527 38909 ft 476 kts 137°
2026-04-30 08:37 18.48457 118.40650 38908 ft 476 kts 137°
2026-04-30 08:37 18.43950 118.45734 38907 ft 476 kts 137°
2026-04-30 08:38 18.39429 118.50831 38906 ft 476 kts 137°
2026-04-30 08:38 18.34892 118.55942 38906 ft 476 kts 137°
2026-04-30 08:39 18.30376 118.61023 38906 ft 476 kts 137°
2026-04-30 08:39 18.25853 118.66110 38904 ft 477 kts 137°
2026-04-30 08:40 18.21327 118.71197 38904 ft 477 kts 137°
2026-04-30 08:40 18.17343 118.75671 38904 ft 477 kts 137°
2026-04-30 08:41 18.12794 118.80778 38903 ft 477 kts 137°
2026-04-30 08:41 18.08263 118.85861 38903 ft 477 kts 137°
2026-04-30 08:42 18.03651 118.90902 38901 ft 475 kts 140°
2026-04-30 08:42 17.98698 118.95391 38902 ft 471 kts 146°
2026-04-30 08:43 17.93301 118.99292 38894 ft 468 kts 153°
2026-04-30 08:43 17.87600 119.02666 38883 ft 467 kts 155°
2026-04-30 08:44 17.82683 119.05509 38878 ft 467 kts 155°
2026-04-30 08:44 17.76989 119.08804 38882 ft 466 kts 155°
2026-04-30 08:45 17.71297 119.12098 38879 ft 466 kts 155°
2026-04-30 08:45 17.65606 119.15390 38878 ft 466 kts 155°
2026-04-30 08:46 17.59910 119.18681 38881 ft 466 kts 155°
2026-04-30 08:46 17.54155 119.22005 38880 ft 466 kts 155°
2026-04-30 08:47 17.48477 119.25281 38881 ft 466 kts 155°
2026-04-30 08:47 17.42732 119.28595 38881 ft 466 kts 154°
2026-04-30 08:48 17.37040 119.31876 38882 ft 466 kts 154°
2026-04-30 08:48 17.31319 119.35170 38882 ft 467 kts 154°
2026-04-30 08:49 17.25633 119.38444 38879 ft 466 kts 154°
2026-04-30 08:49 17.19901 119.41742 38884 ft 465 kts 154°
2026-04-30 08:50 17.14216 119.45009 38878 ft 465 kts 154°
2026-04-30 08:50 17.08494 119.48295 38881 ft 465 kts 154°
2026-04-30 08:51 17.03268 119.51294 38882 ft 465 kts 154°
2026-04-30 08:51 16.98836 119.53838 38882 ft 465 kts 154°
2026-04-30 08:52 16.93131 119.57107 38882 ft 465 kts 154°
2026-04-30 08:52 16.87423 119.60376 38881 ft 466 kts 154°
2026-04-30 08:53 16.81674 119.63666 38886 ft 466 kts 154°
2026-04-30 08:53 16.75975 119.66928 38892 ft 465 kts 154°
2026-04-30 08:54 16.70737 119.69923 38890 ft 464 kts 154°
2026-04-30 08:54 16.65059 119.73166 38887 ft 464 kts 154°
2026-04-30 08:55 16.59368 119.76415 38883 ft 464 kts 154°
2026-04-30 08:55 16.53689 119.79654 38879 ft 464 kts 154°
2026-04-30 08:56 16.48017 119.82889 38875 ft 464 kts 154°
2026-04-30 08:56 16.42344 119.86121 38880 ft 465 kts 154°
2026-04-30 08:57 16.36644 119.89368 38884 ft 465 kts 154°
2026-04-30 08:57 16.30964 119.92600 38884 ft 464 kts 154°
2026-04-30 08:58 16.25257 119.95845 38884 ft 464 kts 154°
2026-04-30 08:58 16.19558 119.99081 38885 ft 464 kts 154°
2026-04-30 08:59 16.13869 120.02312 38890 ft 464 kts 154°
2026-04-30 08:59 16.08154 120.05556 38892 ft 465 kts 154°
2026-04-30 09:00 16.02446 120.08794 38891 ft 465 kts 154°
2026-04-30 09:00 15.96767 120.12014 38888 ft 465 kts 154°
2026-04-30 09:01 15.91083 120.15234 38888 ft 465 kts 154°
2026-04-30 09:01 15.85359 120.18476 38895 ft 465 kts 154°
2026-04-30 09:02 15.76846 120.23292 38896 ft 465 kts 154°
2026-04-30 09:02 15.71134 120.26523 38901 ft 465 kts 154°
2026-04-30 09:03 15.65434 120.29742 38911 ft 465 kts 154°
2026-04-30 09:03 15.59719 120.32965 38924 ft 465 kts 154°
2026-04-30 09:04 15.54011 120.36186 38929 ft 465 kts 154°
2026-04-30 09:04 15.48322 120.39392 38926 ft 465 kts 154°
2026-04-30 09:05 15.42630 120.42598 38916 ft 465 kts 154°
2026-04-30 09:05 15.36930 120.45804 38904 ft 465 kts 154°
2026-04-30 09:06 15.31185 120.49035 38896 ft 465 kts 153°
2026-04-30 09:06 15.25455 120.52258 38894 ft 465 kts 153°
2026-04-30 09:07 15.19757 120.55478 38887 ft 466 kts 152°
2026-04-30 09:07 15.14215 120.59088 38873 ft 468 kts 148°
2026-04-30 09:08 15.08871 120.62735 38867 ft 468 kts 148°
2026-04-30 09:08 15.03435 120.66444 38861 ft 467 kts 149°
2026-04-30 09:09 14.98007 120.70139 38858 ft 467 kts 148°
2026-04-30 09:09 14.92550 120.73847 38852 ft 468 kts 148°
2026-04-30 09:10 14.87080 120.77563 38848 ft 468 kts 148°
2026-04-30 09:10 14.81618 120.81274 38849 ft 468 kts 148°
2026-04-30 09:11 14.76127 120.85004 38848 ft 468 kts 148°
2026-04-30 09:11 14.70628 120.88737 38853 ft 468 kts 148°
2026-04-30 09:12 14.59601 120.96204 38863 ft 468 kts 148°
2026-04-30 09:12 14.54156 120.99892 38860 ft 469 kts 148°
2026-04-30 09:13 14.48685 121.03638 38863 ft 469 kts 147°
2026-04-30 09:13 14.43356 121.07497 38869 ft 470 kts 146°
2026-04-30 09:14 14.37971 121.11410 38873 ft 470 kts 146°
2026-04-30 09:14 14.32616 121.15282 38875 ft 470 kts 146°
2026-04-30 09:15 14.27235 121.19165 38870 ft 470 kts 146°
2026-04-30 09:15 14.21854 121.23041 38875 ft 470 kts 146°
2026-04-30 09:16 14.15697 121.27472 38884 ft 470 kts 146°
2026-04-30 09:17 14.10303 121.31353 38905 ft 471 kts 146°
2026-04-30 09:17 14.04934 121.35210 38922 ft 471 kts 146°
2026-04-30 09:18 13.99516 121.39098 38938 ft 472 kts 146°
2026-04-30 09:18 13.94139 121.42957 38930 ft 471 kts 146°
2026-04-30 09:19 13.88756 121.46820 38915 ft 471 kts 146°
2026-04-30 09:19 13.83382 121.50677 38897 ft 471 kts 146°
2026-04-30 09:20 13.78010 121.54530 38879 ft 471 kts 146°
2026-04-30 09:20 13.72606 121.58405 38876 ft 471 kts 145°
2026-04-30 09:21 13.67250 121.62241 38877 ft 471 kts 146°
2026-04-30 09:21 13.61872 121.66081 38878 ft 470 kts 146°
2026-04-30 09:22 13.56504 121.69916 38887 ft 470 kts 146°
2026-04-30 09:22 13.51121 121.73763 38884 ft 470 kts 146°
2026-04-30 09:23 13.45730 121.77615 38879 ft 470 kts 146°
2026-04-30 09:23 13.40321 121.81475 38888 ft 470 kts 146°
2026-04-30 09:24 13.34933 121.85320 38891 ft 469 kts 146°
2026-04-30 09:24 13.29592 121.89128 38908 ft 469 kts 146°
2026-04-30 09:25 13.24206 121.92969 38926 ft 469 kts 146°
2026-04-30 09:25 13.18809 121.96815 38929 ft 470 kts 146°
2026-04-30 09:26 13.13457 122.00626 38922 ft 470 kts 146°
2026-04-30 09:26 13.08039 122.04484 38901 ft 469 kts 146°
2026-04-30 09:27 13.02690 122.08287 38875 ft 468 kts 146°
2026-04-30 09:27 12.97296 122.12119 38863 ft 468 kts 145°
2026-04-30 09:28 12.91945 122.15921 38862 ft 468 kts 145°
2026-04-30 09:28 12.86575 122.19737 38862 ft 467 kts 145°
2026-04-30 09:29 12.81215 122.23541 38862 ft 467 kts 146°
2026-04-30 09:29 12.75858 122.27342 38861 ft 467 kts 145°
2026-04-30 09:30 12.70494 122.31146 38861 ft 466 kts 145°
2026-04-30 09:30 12.65187 122.34907 38862 ft 465 kts 145°
2026-04-30 09:31 12.59835 122.38699 38862 ft 464 kts 145°
2026-04-30 09:31 12.54517 122.42464 38862 ft 464 kts 145°
2026-04-30 09:32 12.49190 122.46236 38863 ft 464 kts 145°
2026-04-30 09:32 12.43869 122.50004 38863 ft 464 kts 145°
2026-04-30 09:33 12.38552 122.53765 38862 ft 464 kts 145°
2026-04-30 09:33 12.33239 122.57513 38862 ft 464 kts 145°
2026-04-30 09:34 12.27939 122.61247 38862 ft 463 kts 145°
2026-04-30 09:34 12.22637 122.64986 38861 ft 462 kts 145°
2026-04-30 09:35 12.17329 122.68729 38861 ft 463 kts 145°
2026-04-30 09:35 12.12038 122.72459 38861 ft 463 kts 145°
2026-04-30 09:36 12.06742 122.76192 38861 ft 463 kts 146°
2026-04-30 09:36 12.01434 122.79930 38861 ft 463 kts 145°
2026-04-30 09:37 11.96098 122.83687 38861 ft 463 kts 145°
2026-04-30 09:37 11.90812 122.87407 38861 ft 462 kts 146°
2026-04-30 09:38 11.85483 122.91155 38861 ft 462 kts 146°
2026-04-30 09:38 11.80189 122.94877 38860 ft 461 kts 146°
2026-04-30 09:39 11.74876 122.98608 38859 ft 461 kts 145°
2026-04-30 09:39 11.69593 123.02318 38858 ft 461 kts 145°
2026-04-30 09:40 11.64292 123.06040 38853 ft 461 kts 145°
2026-04-30 09:40 11.58976 123.09771 38846 ft 461 kts 145°
2026-04-30 09:41 11.53703 123.13470 38846 ft 461 kts 145°
2026-04-30 09:41 11.48410 123.17179 38848 ft 460 kts 145°
2026-04-30 09:42 11.43130 123.20878 38849 ft 459 kts 145°
2026-04-30 09:42 11.37842 123.24581 38851 ft 459 kts 145°
2026-04-30 09:43 11.32540 123.28294 38853 ft 459 kts 145°
2026-04-30 09:43 11.27278 123.31978 38851 ft 460 kts 145°
2026-04-30 09:44 11.21986 123.35680 38850 ft 460 kts 145°
2026-04-30 09:44 11.16689 123.39384 38851 ft 459 kts 145°
2026-04-30 09:45 11.11404 123.43079 38851 ft 459 kts 144°
2026-04-30 09:45 11.06119 123.46774 38851 ft 458 kts 144°
2026-04-30 09:46 11.00857 123.50449 38850 ft 458 kts 144°
2026-04-30 09:46 10.95567 123.54136 38852 ft 459 kts 144°
2026-04-30 09:47 10.90273 123.57825 38855 ft 459 kts 144°
2026-04-30 09:47 10.85002 123.61500 38855 ft 458 kts 144°
2026-04-30 09:48 10.79708 123.65190 38857 ft 458 kts 144°
2026-04-30 09:48 10.74445 123.68859 38861 ft 457 kts 144°
2026-04-30 09:49 10.69198 123.72516 38865 ft 457 kts 144°
2026-04-30 09:49 10.63956 123.76162 38872 ft 456 kts 144°
2026-04-30 09:50 10.58693 123.79820 38877 ft 457 kts 144°
2026-04-30 09:50 10.53459 123.83459 38881 ft 457 kts 144°
2026-04-30 09:51 10.48199 123.87116 38884 ft 457 kts 144°
2026-04-30 09:51 10.42931 123.90780 38881 ft 457 kts 144°
2026-04-30 09:52 10.37653 123.94448 38877 ft 457 kts 144°
2026-04-30 09:52 10.32573 123.98295 38874 ft 456 kts 139°
2026-04-30 09:53 10.27880 124.02690 38870 ft 454 kts 133°
2026-04-30 09:53 10.23550 124.07447 38867 ft 454 kts 131°
2026-04-30 09:54 10.19280 124.12196 38867 ft 453 kts 131°
2026-04-30 09:54 10.15001 124.16948 38872 ft 455 kts 131°
2026-04-30 09:55 10.10754 124.21657 38870 ft 454 kts 131°
2026-04-30 09:55 10.06479 124.26397 38874 ft 454 kts 131°
2026-04-30 09:56 10.02214 124.31120 38877 ft 454 kts 131°
2026-04-30 09:56 9.97946 124.35837 38871 ft 453 kts 131°
2026-04-30 09:57 9.93689 124.40544 38872 ft 453 kts 131°
2026-04-30 09:57 9.89404 124.45284 38871 ft 454 kts 131°